Météo par heure à Juru

Ce jour, 20 Juin, Dimanche

Heure Température Précipitation Vent Pression Humidité
00:00 +19°C° 0 mm 4 m/s 711 mmHg 85%
01:00 +19°C° 0 mm 4 m/s 710 mmHg 85%
02:00 +19°C° 0 mm 3 m/s 710 mmHg 86%
03:00 +18°C° 0 mm 3 m/s 710 mmHg 87%
04:00 +18°C° 0 mm 3 m/s 710 mmHg 87%
05:00 +18°C° 0 mm 2 m/s 710 mmHg 88%
06:00 +18°C° 0 mm 2 m/s 710 mmHg 88%
07:00 +21°C° 0 mm 3 m/s 711 mmHg 78%
08:00 +25°C° 0 mm 4 m/s 711 mmHg 67%
09:00 +27°C° 0 mm 5 m/s 712 mmHg 58%
10:00 +28°C° 0 mm 5 m/s 711 mmHg 55%
11:00 +29°C° 0 mm 5 m/s 711 mmHg 52%
12:00 +29°C° 0 mm 5 m/s 711 mmHg 50%
13:00 +30°C° 0 mm 4 m/s 710 mmHg 49%
14:00 +30°C° 0 mm 4 m/s 710 mmHg 48%
15:00 +30°C° 0 mm 3 m/s 709 mmHg 48%
16:00 +29°C° 0 mm 3 m/s 709 mmHg 51%
17:00 +28°C° 0 mm 2 m/s 709 mmHg 54%
18:00 +27°C° 0 mm 2 m/s 709 mmHg 57%
19:00 +26°C° 0 mm 3 m/s 709 mmHg 62%
20:00 +25°C° 0 mm 3 m/s 710 mmHg 67%
21:00 +24°C° 0 mm 3 m/s 710 mmHg 73%
22:00 +22°C° 0.1 mm 3 m/s 710 mmHg 79%
23:00 +21°C° 0.1 mm 3 m/s 710 mmHg 85%

Demain, 21 Juin, Lundi

Heure Température Précipitation Vent Pression Humidité
00:00 +20°C° 0.1 mm 3 m/s 710 mmHg 91%
01:00 +20°C° 0 mm 2 m/s 710 mmHg 92%
02:00 +19°C° 0 mm 2 m/s 709 mmHg 93%
03:00 +19°C° 0 mm 2 m/s 709 mmHg 94%
04:00 +19°C° 0 mm 2 m/s 709 mmHg 95%
05:00 +19°C° 0 mm 2 m/s 710 mmHg 95%
06:00 +18°C° 0 mm 2 m/s 710 mmHg 95%
07:00 +21°C° 0 mm 2 m/s 710 mmHg 83%
08:00 +24°C° 0 mm 3 m/s 711 mmHg 71%
09:00 +27°C° 0 mm 3 m/s 712 mmHg 59%
10:00 +29°C° 0 mm 3 m/s 711 mmHg 51%
11:00 +31°C° 0 mm 3 m/s 711 mmHg 43%
12:00 +34°C° 0 mm 3 m/s 710 mmHg 35%
13:00 +34°C° 0 mm 3 m/s 710 mmHg 34%
14:00 +34°C° 0 mm 3 m/s 709 mmHg 33%
15:00 +34°C° 0 mm 3 m/s 708 mmHg 31%
16:00 +33°C° 0 mm 4 m/s 709 mmHg 37%
17:00 +30°C° 0 mm 4 m/s 709 mmHg 43%
18:00 +28°C° 0 mm 4 m/s 709 mmHg 49%
19:00 +27°C° 0 mm 4 m/s 709 mmHg 56%
20:00 +25°C° 0 mm 4 m/s 710 mmHg 63%
21:00 +23°C° 0 mm 4 m/s 710 mmHg 70%
22:00 +22°C° 0 mm 3 m/s 710 mmHg 75%
23:00 +21°C° 0 mm 3 m/s 710 mmHg 80%

Après-demain, 22 Juin, Mardi

Heure Température Précipitation Vent Pression Humidité
00:00 +20°C° 0 mm 2 m/s 710 mmHg 85%
01:00 +19°C° 0 mm 2 m/s 710 mmHg 87%
02:00 +19°C° 0 mm 2 m/s 709 mmHg 89%
03:00 +19°C° 0 mm 1 m/s 709 mmHg 91%
04:00 +19°C° 0 mm 1 m/s 709 mmHg 92%
05:00 +18°C° 0 mm 2 m/s 709 mmHg 93%
06:00 +18°C° 0 mm 2 m/s 710 mmHg 94%
07:00 +21°C° 0 mm 2 m/s 710 mmHg 79%
08:00 +25°C° 0 mm 3 m/s 711 mmHg 64%
09:00 +28°C° 0 mm 4 m/s 711 mmHg 49%
10:00 +30°C° 0 mm 4 m/s 711 mmHg 43%
11:00 +33°C° 0 mm 4 m/s 711 mmHg 36%
12:00 +35°C° 0 mm 4 m/s 710 mmHg 30%
13:00 +34°C° 0 mm 4 m/s 710 mmHg 30%
14:00 +34°C° 0 mm 4 m/s 709 mmHg 30%
15:00 +34°C° 0 mm 4 m/s 708 mmHg 30%
16:00 +32°C° 0 mm 4 m/s 708 mmHg 38%
17:00 +29°C° 0 mm 4 m/s 709 mmHg 45%
18:00 +27°C° 0 mm 3 m/s 709 mmHg 52%
19:00 +26°C° 0 mm 3 m/s 709 mmHg 59%
20:00 +25°C° 0 mm 3 m/s 710 mmHg 65%
21:00 +22°C° 0 mm 3 m/s 710 mmHg 71%
22:00 +21°C° 0 mm 3 m/s 710 mmHg 76%
23:00 +21°C° 0 mm 3 m/s 710 mmHg 82%

23 Juin, Mercredi

Heure Température Précipitation Vent Pression Humidité
00:00 +20°C° 0 mm 2 m/s 710 mmHg 87%
01:00 +19°C° 0 mm 2 m/s 709 mmHg 89%
02:00 +19°C° 0 mm 2 m/s 709 mmHg 92%
03:00 +18°C° 0 mm 2 m/s 709 mmHg 94%
04:00 +18°C° 0 mm 2 m/s 709 mmHg 94%
05:00 +18°C° 0 mm 2 m/s 709 mmHg 95%
06:00 +18°C° 0 mm 2 m/s 709 mmHg 95%
07:00 +21°C° 0 mm 3 m/s 710 mmHg 82%
08:00 +24°C° 0 mm 3 m/s 711 mmHg 70%
09:00 +27°C° 0 mm 4 m/s 711 mmHg 57%
10:00 +29°C° 0 mm 4 m/s 711 mmHg 51%
11:00 +30°C° 0 mm 4 m/s 710 mmHg 44%
12:00 +32°C° 0 mm 4 m/s 710 mmHg 38%
13:00 +31°C° 0 mm 3 m/s 709 mmHg 40%
14:00 +30°C° 0 mm 3 m/s 709 mmHg 42%
15:00 +30°C° 0 mm 2 m/s 708 mmHg 43%
16:00 +28°C° 0.2 mm 3 m/s 708 mmHg 54%
17:00 +26°C° 0.2 mm 3 m/s 709 mmHg 65%
18:00 +24°C° 0.2 mm 3 m/s 709 mmHg 76%
19:00 +24°C° 0.3 mm 3 m/s 709 mmHg 80%
20:00 +23°C° 0.3 mm 2 m/s 710 mmHg 84%
21:00 +21°C° 0.3 mm 2 m/s 710 mmHg 88%
22:00 +21°C° 0.1 mm 2 m/s 710 mmHg 89%
23:00 +21°C° 0.1 mm 2 m/s 710 mmHg 90%

24 Juin, Jeudi

Heure Température Précipitation Vent Pression Humidité
00:00 +20°C° 0.1 mm 2 m/s 710 mmHg 92%
01:00 +20°C° 0 mm 2 m/s 709 mmHg 92%
02:00 +20°C° 0 mm 2 m/s 709 mmHg 93%
03:00 +20°C° 0 mm 2 m/s 709 mmHg 94%
04:00 +20°C° 0 mm 2 m/s 709 mmHg 94%
05:00 +20°C° 0 mm 2 m/s 709 mmHg 93%
06:00 +20°C° 0 mm 2 m/s 710 mmHg 93%
07:00 +21°C° 0 mm 3 m/s 710 mmHg 84%
08:00 +23°C° 0 mm 4 m/s 711 mmHg 74%
09:00 +26°C° 0 mm 5 m/s 711 mmHg 65%
10:00 +27°C° 0.1 mm 5 m/s 711 mmHg 60%
11:00 +28°C° 0.1 mm 5 m/s 710 mmHg 55%
12:00 +29°C° 0.1 mm 5 m/s 710 mmHg 50%
13:00 +29°C° 0.2 mm 4 m/s 709 mmHg 51%
14:00 +29°C° 0.2 mm 4 m/s 709 mmHg 52%
15:00 +28°C° 0.2 mm 4 m/s 708 mmHg 52%
16:00 +27°C° 0 mm 4 m/s 708 mmHg 53%
17:00 +26°C° 0 mm 4 m/s 709 mmHg 54%
18:00 +25°C° 0 mm 4 m/s 709 mmHg 54%
19:00 +23°C° 0 mm 4 m/s 709 mmHg 63%
20:00 +22°C° 0 mm 4 m/s 709 mmHg 72%
21:00 +21°C° 0 mm 5 m/s 710 mmHg 80%
22:00 +21°C° 0 mm 5 m/s 710 mmHg 84%
23:00 +20°C° 0 mm 5 m/s 709 mmHg 87%

25 Juin, Vendredi

Heure Température Précipitation Vent Pression Humidité
00:00 +20°C° 0 mm 6 m/s 709 mmHg 90%
01:00 +20°C° 0 mm 5 m/s 709 mmHg 90%
02:00 +19°C° 0 mm 5 m/s 709 mmHg 90%
03:00 +19°C° 0 mm 5 m/s 709 mmHg 90%
04:00 +19°C° 0 mm 5 m/s 709 mmHg 90%
05:00 +19°C° 0 mm 5 m/s 709 mmHg 89%
06:00 +19°C° 0 mm 5 m/s 709 mmHg 89%
07:00 +21°C° 0 mm 5 m/s 710 mmHg 77%
08:00 +23°C° 0 mm 6 m/s 710 mmHg 66%
09:00 +26°C° 0 mm 6 m/s 711 mmHg 54%
10:00 +28°C° 0 mm 6 m/s 711 mmHg 48%
11:00 +30°C° 0 mm 5 m/s 710 mmHg 42%
12:00 +33°C° 0 mm 5 m/s 710 mmHg 37%
13:00 +32°C° 0 mm 5 m/s 709 mmHg 39%
14:00 +30°C° 0 mm 5 m/s 709 mmHg 42%
15:00 +29°C° 0 mm 6 m/s 708 mmHg 44%
16:00 +28°C° 0 mm 5 m/s 708 mmHg 47%
17:00 +27°C° 0 mm 5 m/s 708 mmHg 50%
18:00 +26°C° 0 mm 5 m/s 709 mmHg 52%
19:00 +25°C° 0 mm 5 m/s 709 mmHg 60%
20:00 +22°C° 0 mm 5 m/s 709 mmHg 68%
21:00 +21°C° 0 mm 5 m/s 709 mmHg 76%
22:00 +20°C° 0 mm 5 m/s 709 mmHg 80%
23:00 +19°C° 0 mm 5 m/s 709 mmHg 84%
Voir plus

Nous avons besoin de votre consentement

Meteoprog et ses fournisseurs de services peuvent stocker et accéder à des données personnelles telles que des cookies, des identifiants d'appareils ou d'autres technologies similaires sur votre appareil et traiter ces données pour personnaliser le contenu et les publicités, ainsi que pour fournir des fonctionnalités de médias sociaux et analyser le trafic.

  • Stocker et/ou accéder à des informations sur votre appareil

    Des cookies, des identifiants d'appareils ou d'autres informations peuvent être stockés ou accessibles sur votre appareil aux fins indiquées ci-dessus.

  • Annonces et contenus personnalisés, mesure des annonces et des contenus, connaissance de l'audience et développement de produits

    Les annonces et le contenu peuvent être personnalisés en fonction d'un profil. D'autres données peuvent être ajoutées pour mieux personnaliser les annonces et le contenu. Les performances des publicités et du contenu peuvent être mesurées. Il est possible d'obtenir des informations sur le public qui a vu les publicités et le contenu. Ces données peuvent être utilisées pour développer ou améliorer l'expérience de l'utilisateur, les systèmes et les logiciels.

En cliquant sur "J'accepte", vous autorisez l'utilisation de cookies, des identifiants d'appareils, des balises web ou d'autres technologies similaires. Vos paramètres peuvent être modifiés dans le navigateur de votre appareil.

Dans certains cas, des intérêts légitimes peuvent être invoqués plutôt qu'un consentement. Vous pouvez en savoir plus à ce sujet dans notre Politique de confidentialité et de cookies.